Cloud_Cover
0 0 0 0 10 53 19 48 82 70 37 8 15 4 5 0 2 5 2 0 1 4 0 0 0 0 0 0 0 0 0 0 0 0 0 0 0 0 0 0 0 0 0 0
0 0 0 0 22 35 5 28 64 87 21 77 20 64 4 15 0 21 3 0 1 0 0 0 0 0 0 0 0 0 0 0 0 0 0 0 0 0 0 0 0 0 0 0
0 1 0 0 0 100 12 16 99 92 100 100 100 24 49 91 5 5 1 0 0 1 0 0 0 0 0 0 0 0 0 0 0 0 0 0 0 0 0 0 0 0 0 0
0 1 0 0 0 2 6 0 90 52 100 92 100 99 14 72 99 83 28 0 0 0 0 0 0 0 0 0 0 0 0 0 0 0 0 0 0 0 0 0 0 0 0 0
0 0 0 0 0 0 0 5 56 100 100 83 100 75 100 98 66 99 4 0 0 0 0 0 0 0 0 0 0 0 0 0 0 0 0 0 0 0 0 0 0 0 0 0
0 0 0 0 0 0 0 5 4 86 54 66 100 95 97 5 4 20 5 0 0 0 0 0 0 0 0 0 0 0 0 0 0 0 0 0 0 0 0 0 0 0 0 0
0 0 0 0 0 0 0 5 0 4 8 100 100 89 8 0 0 3 4 5 0 0 0 0 0 0 0 0 0 0 0 0 0 0 0 0 0 0 0 0 0 0 0 0
0 0 0 0 0 0 0 0 0 0 33 100 12 4 5 12 0 5 6 72 52 0 0 0 0 0 0 0 0 0 0 0 0 0 0 0 0 0 0 0 0 0 0 0
0 0 0 0 0 0 0 0 0 22 43 64 8 5 5 0 0 0 94 40 84 0 0 0 0 0 0 0 0 0 0 0 0 0 0 0 0 0 0 0 0 0 0 0
0 0 0 0 0 0 0 0 0 43 5 5 18 7 22 4 2 0 5 50 76 100 39 0 0 0 0 0 0 0 0 0 0 0 0 0 0 0 0 0 0 0 0 0
0 0 0 0 0 0 0 0 0 1 5 0 5 1 2 5 5 2 39 80 100 100 100 92 0 0 0 0 0 0 0 0 0 0 0 0 0 0 0 0 0 0 0 0
0 0 0 0 0 0 0 0 0 0 0 3 0 0 5 10 46 5 90 58 94 100 98 2 0 0 0 0 0 0 0 0 0 0 0 0 0 0 0 0 0 0 0 0
0 0 0 0 0 0 0 0 0 0 0 0 0 0 0 5 0 5 24 55 100 31 34 17 79 13 0 0 0 0 0 0 0 0 0 0 0 0 0 0 0 0 0 0
0 0 0 0 0 0 0 0 0 0 0 0 0 0 0 0 2 4 90 66 99 1 63 5 15 0 0 0 0 0 0 0 0 0 0 0 0 0 0 0 0 0 0 0
0 0 0 0 0 0 0 0 0 0 0 0 0 0 0 0 6 32 91 74 91 11 84 98 5 0 0 0 0 0 0 0 0 0 0 0 0 0 0 0 0 0 0 4
0 0 0 0 0 0 0 0 0 0 0 0 0 0 0 4 5 87 100 100 96 65 84 77 4 0 0 0 0 0 0 0 0 0 0 0 0 0 0 0 0 0 0 3
0 0 0 0 0 0 0 0 0 0 0 0 0 0 0 0 19 63 16 51 87 79 89 0 0 0 0 0 0 0 0 0 0 0 0 0 0 0 0 0 0 0 0 4
1 0 0 0 0 0 0 0 0 0 0 0 0 0 0 0 100 8 100 99 93 100 100 61 27 6 0 0 0 0 0 0 0 0 0 0 0 0 0 0 0 0 0 0
5 3 0 0 0 0 0 0 4 0 0 0 0 0 0 1 5 5 81 93 100 100 100 100 83 16 0 0 0 0 0 0 0 0 0 0 0 0 0 0 0 0 0 0
94 17 4 0 0 0 0 0 2 0 0 0 0 0 0 1 10 5 99 100 100 99 100 100 100 5 0 0 0 0 0 0 0 0 0 0 0 0 0 0 0 0 0 0
100 100 11 0 0 0 0 4 5 7 0 0 0 0 0 0 48 5 94 100 100 100 100 100 100 6 0 0 0 0 0 0 0 0 0 0 0 0 0 0 0 0 0 0
55 98 57 20 0 0 2 51 95 8 9 0 0 0 0 0 2 3 14 100 100 56 100 98 100 99 0 0 0 0 0 0 0 0 0 0 0 0 0 0 0 0 0 0
4 44 96 90 2 4 93 100 95 22 91 81 4 0 0 4 11 3 100 95 99 100 89 99 100 100 1 0 0 0 0 0 0 0 0 0 0 0 0 0 0 0 0 0
3 8 24 81 0 2 15 100 100 22 100 69 5 0 0 0 2 47 97 87 100 81 100 77 71 5 2 30 0 0 0 0 0 0 0 0 0 0 0 0 0 0 4 11
79 99 96 28 4 13 33 52 5 5 100 100 38 0 0 0 3 37 41 98 100 100 90 100 98 61 7 19 96 8 0 0 0 0 0 0 0 0 0 0 0 0 5 85
100 100 100 100 100 100 71 80 100 66 98 100 100 6 0 37 53 58 34 6 99 100 100 100 100 100 69 0 52 46 3 0 0 0 0 2 0 0 0 1 4 83 80 98